Theta_e
309 308 306 305 303 302 302 302 302 302 302 304 305 307 309 311 311 310 308 314 308 301 303 305 305 301 300 298 294 298 296 299 296 292 292 292 291 293 292 293 293 291 289 289 290 286 284 303 299 291 296 301 299 298
307 306 304 303 302 301 301 302 302 302 302 303 304 306 308 309 309 308 304 314 317 307 303 309 307 307 307 306 301 300 297 297 296 293 293 293 290 292 291 287 298 289 295 291 291 292 302 304 302 305 303 298 298 296
305 303 302 302 301 301 301 301 302 302 302 302 303 304 306 307 307 307 305 308 309 302 302 302 303 309 313 312 313 299 301 302 301 303 296 293 289 293 288 291 294 297 300 295 295 298 299 302 304 303 301 299 298 296
303 302 301 301 301 301 301 301 301 301 302 302 303 303 304 305 306 306 304 308 308 304 295 300 309 305 310 311 310 309 307 306 305 301 295 291 288 295 292 294 294 298 299 296 296 299 299 300 300 300 299 299 296 296
302 301 301 301 300 301 301 301 301 302 302 302 303 303 303 304 305 305 306 308 314 304 294 296 304 307 311 311 308 308 306 303 304 294 291 290 293 293 296 296 296 301 296 291 289 299 296 295 300 299 296 295 295 295
301 301 300 301 301 301 301 301 301 301 302 302 303 303 303 303 304 305 302 310 312 309 299 292 301 303 307 308 307 306 305 304 300 296 293 295 299 295 289 290 298 301 305 305 298 301 299 299 299 299 295 295 296 296
301 300 300 301 301 301 301 301 301 301 301 302 302 303 304 304 303 300 299 304 307 308 298 293 295 304 307 307 306 305 307 301 300 297 293 294 296 297 291 288 298 301 302 303 302 298 295 296 294 297 296 296 298 299
300 300 300 300 300 300 300 301 301 301 301 301 302 303 304 305 304 301 307 307 307 302 301 291 292 297 307 301 299 305 302 299 298 298 297 295 298 298 290 298 300 302 301 300 299 298 297 298 297 295 297 297 296 295
300 300 300 300 300 300 300 300 300 301 301 302 303 304 304 303 301 304 308 306 308 302 295 294 290 290 304 301 302 302 302 295 299 292 292 296 296 291 297 298 300 299 296 296 296 296 296 294 294 295 296 295 294 294
300 300 300 300 300 299 299 300 300 300 301 303 302 302 300 304 308 308 303 299 299 300 299 292 297 292 299 299 297 298 302 297 291 294 299 295 295 301 301 302 300 298 298 296 294 292 293 292 293 294 294 295 294 293
299 299 300 300 299 299 299 300 300 300 302 303 300 298 304 307 303 299 294 293 294 290 295 295 296 293 301 295 294 299 295 298 292 297 295 295 292 296 301 299 299 299 298 297 297 296 296 295 294 294 293 293 293 292
299 300 299 299 299 299 299 299 299 300 301 298 298 302 302 298 296 291 291 294 292 290 297 295 296 299 301 302 296 297 292 295 289 299 293 290 292 298 298 298 298 298 298 297 297 296 296 295 296 294 293 292 292 292
299 299 299 299 299 299 299 299 299 300 301 302 299 295 294 294 286 286 285 289 291 296 299 299 298 301 303 304 297 295 291 290 300 295 292 290 297 299 298 297 297 298 298 297 297 297 296 295 295 293 293 294 294 292
299 299 299 299 299 299 299 299 299 300 299 293 292 284 289 288 290 291 292 294 299 301 301 300 298 297 298 297 298 291 296 297 290 288 286 293 297 298 298 298 296 296 296 296 296 296 295 294 292 293 295 295 294 293
299 299 298 298 298 299 300 299 300 301 296 291 291 286 288 293 294 296 298 300 300 302 300 296 296 296 293 292 293 294 291 289 287 289 293 297 300 299 298 297 297 296 297 296 296 294 294 293 291 292 295 296 296 296
298 298 298 299 299 300 298 299 299 299 296 292 292 290 293 292 293 295 295 295 300 299 300 297 293 290 290 292 291 290 289 288 293 296 299 300 300 299 298 297 297 298 297 297 295 294 294 293 291 292 295 295 295 296
296 295 299 299 298 297 298 296 298 293 291 289 288 293 292 292 291 293 295 296 300 296 291 293 288 287 294 291 290 296 293 297 298 299 298 303 300 300 299 298 298 298 297 297 295 294 294 294 292 292 292 294 296 297
295 298 297 296 296 297 296 295 292 291 287 290 288 290 292 294 293 294 296 298 297 295 294 291 294 289 288 287 290 295 299 302 302 301 300 302 302 301 299 298 298 298 297 297 296 295 295 293 291 291 294 295 296 296
296 297 295 295 295 294 292 292 293 286 288 290 291 293 293 294 296 297 297 298 299 299 296 294 290 288 290 293 295 299 302 302 300 301 303 302 302 301 299 299 298 298 297 297 296 295 294 294 294 294 295 295 295 296
296 296 296 297 296 291 289 290 296 289 287 290 292 292 293 293 296 296 297 297 296 294 291 290 291 293 295 297 300 301 304 304 302 300 301 302 302 301 299 298 298 298 298 297 297 295 295 294 295 295 296 295 295 296
295 296 297 296 294 292 291 290 290 290 291 289 292 292 292 294 294 293 294 297 294 292 291 294 295 297 300 299 300 301 302 303 304 303 303 303 302 299 299 299 299 299 298 297 296 295 294 294 295 296 296 296 297 298
296 298 296 295 290 291 290 293 290 292 290 290 290 291 290 290 291 293 296 293 292 293 295 296 297 297 298 300 302 304 304 304 305 305 300 300 299 298 298 299 299 297 298 298 297 297 295 296 296 296 295 296 297 297
296 295 294 292 288 287 285 293 288 289 285 288 291 289 290 291 294 297 292 294 295 299 299 299 300 301 301 302 303 304 304 304 303 305 305 303 302 301 301 300 300 298 296 298 299 298 297 293 294 296 296 296 297 298
293 291 288 287 287 283 289 287 290 288 288 287 287 285 288 291 297 293 290 294 297 301 300 301 300 299 301 302 301 302 303 307 305 306 307 302 300 300 300 300 300 301 300 300 299 299 299 296 294 296 296 296 296 296
285 284 286 282 287 285 284 285 286 286 285 287 286 288 291 295 290 290 290 295 298 301 301 302 301 301 300 302 302 303 309 307 305 304 305 304 302 301 300 301 301 301 302 300 299 299 298 299 298 296 295 295 295 295
280 285 283 285 286 284 286 284 286 287 287 286 288 291 293 289 286 286 292 298 301 304 304 304 303 302 301 303 302 307 307 308 308 305 303 305 304 300 299 298 299 299 302 302 300 298 299 299 298 297 296 295 290 296
279 283 288 292 290 290 288 288 289 287 285 285 288 288 288 284 285 288 293 299 303 307 310 310 308 306 308 306 308 309 309 309 308 307 307 307 306 305 302 300 299 302 304 303 301 301 299 298 298 298 298 297 297 297
286 288 285 289 290 291 286 286 285 285 287 289 287 286 285 286 286 293 298 303 307 309 309 313 313 309 311 312 308 308 309 310 311 309 308 307 308 307 307 306 306 294 304 304 303 302 301 300 299 299 298 298 299 300
286 290 290 286 287 287 287 287 288 290 291 288 286 286 285 290 296 298 301 306 310 310 307 306 308 311 308 309 309 309 310 308 304 302 301 300 300 303 306 306 305 305 304 304 290 297 302 301 301 300 300 300 300 301
288 292 288 287 286 286 291 293 291 293 293 291 289 289 292 296 300 303 304 305 304 303 305 306 308 306 305 305 304 305 307 307 307 306 303 302 304 307 305 306 305 304 305 304 303 301 287 297 295 301 299 301 301 300
292 292 290 289 288 291 294 295 294 293 293 293 295 295 294 297 301 303 302 303 303 303 304 302 303 304 303 303 303 302 301 305 306 305 304 306 306 308 310 310 306 305 305 304 304 303 301 300 299 299 299 300 300 298
291 289 289 286 288 293 292 289 290 290 292 293 294 297 297 295 294 298 303 302 301 301 295 300 301 302 304 304 305 305 296 304 304 304 303 303 304 306 307 309 309 309 307 304 303 302 301 301 300 299 299 300 300 300
291 291 290 290 288 287 290 290 289 290 292 293 296 298 296 296 293 299 304 305 302 301 301 303 304 304 304 304 304 303 300 304 297 287 289 288 286 291 302 307 308 309 308 307 304 303 302 300 301 300 300 301 301 301
Wind_Speed
15 12 11 9 7 7 8 9 10 11 12 12 14 15 18 12 11 8 9 6 5 5 16 20 12 12 13 10 5 8 8 5 7 7 7 8 9 8 13 18 15 13 8 9 7 5 7 22 23 10 8 15 16 19
13 10 9 8 7 7 8 9 9 10 11 12 13 14 15 14 11 11 9 2 4 5 14 22 25 26 22 19 11 6 6 8 4 4 6 5 10 11 15 9 12 5 6 5 5 8 20 19 16 15 13 15 19 18
12 11 10 8 7 7 7 8 9 10 11 11 12 12 13 14 13 10 9 10 7 3 12 11 12 6 15 15 11 8 6 4 5 3 2 3 6 9 10 13 15 9 13 7 15 13 18 19 16 16 18 16 13 16
10 9 8 8 7 6 7 9 9 10 11 12 12 13 13 13 13 12 8 8 5 4 5 5 13 18 16 11 14 14 12 2 1 3 2 3 3 7 10 14 17 13 15 12 18 18 16 14 16 17 16 13 17 18
8 8 7 7 7 7 9 10 10 11 12 13 14 14 13 14 15 12 10 9 2 5 5 13 22 17 7 7 6 12 13 7 6 3 3 4 5 7 9 11 13 10 3 4 4 15 9 10 15 15 16 17 18 20
8 7 7 8 9 8 8 10 11 12 13 14 14 15 15 14 14 9 3 5 4 3 5 6 12 13 10 11 8 11 7 4 3 3 3 4 10 5 4 6 12 13 12 11 6 9 13 18 15 14 15 18 18 20
8 8 8 9 9 9 10 11 12 13 14 15 16 15 15 13 8 6 6 1 5 7 5 7 7 2 6 11 6 4 5 2 4 3 4 6 11 6 4 8 13 11 11 13 10 15 16 12 13 15 16 18 18 12
9 9 9 9 9 9 10 12 13 15 16 16 17 17 16 13 12 9 7 15 9 5 3 5 7 10 1 5 5 5 5 4 5 3 3 6 7 5 6 10 12 7 14 13 15 12 10 13 14 15 15 12 13 7
10 10 10 10 9 10 11 12 14 16 18 18 19 21 8 6 6 3 11 9 8 6 4 4 6 6 4 6 5 2 4 3 2 4 4 5 5 6 8 8 9 11 11 15 14 15 13 13 15 14 13 13 11 7
11 10 11 10 9 10 11 12 14 18 21 20 11 7 6 4 10 11 2 3 5 4 4 7 9 10 10 7 4 4 3 5 4 7 5 6 6 8 5 7 8 10 13 10 14 14 14 14 14 15 13 11 9 7
10 11 12 9 9 10 11 12 14 18 17 5 5 3 3 8 5 6 5 5 5 5 6 7 11 9 7 6 5 4 5 4 4 2 4 4 3 4 10 9 7 10 10 9 11 10 12 11 12 12 12 12 8 8
11 11 9 9 10 10 10 11 13 9 4 8 7 8 5 4 4 4 5 6 7 6 7 8 9 10 4 3 3 4 4 4 6 6 4 1 3 5 8 12 11 9 9 12 11 11 11 12 11 11 11 8 9 9
12 10 9 10 10 10 10 10 9 12 15 4 3 5 4 6 4 8 10 8 6 6 6 5 5 5 4 4 4 4 5 6 7 4 3 2 4 7 10 9 11 9 12 11 11 10 11 11 11 11 9 8 10 12
12 11 10 10 10 11 12 11 10 11 6 4 6 6 7 8 9 11 12 6 2 7 2 4 6 5 4 6 5 5 5 4 4 5 2 4 7 8 9 9 9 10 10 11 11 11 11 11 10 10 8 8 10 13
10 9 9 10 12 11 7 7 10 7 4 6 6 6 9 10 11 4 7 3 3 10 9 3 4 5 6 7 5 4 4 2 2 2 2 6 7 8 8 9 9 9 8 7 9 10 10 10 9 9 8 8 11 11
7 8 12 13 6 7 6 10 9 7 4 5 8 11 9 7 7 8 8 7 5 5 3 3 6 5 4 4 3 4 3 3 3 2 5 6 4 7 7 7 8 9 8 7 8 9 9 9 8 7 8 9 10 10
5 3 5 8 6 4 8 6 4 6 6 7 6 10 11 12 11 11 8 9 6 5 5 4 5 5 4 4 4 2 4 3 4 7 5 6 5 6 5 5 6 8 8 7 8 8 9 9 8 6 9 9 8 7
3 3 6 4 4 7 7 5 4 5 8 8 9 9 11 12 11 11 9 7 6 5 6 10 8 13 9 12 2 5 4 2 3 2 3 5 4 4 4 5 6 7 7 7 8 7 7 7 7 5 6 7 6 6
3 2 3 4 4 3 3 5 5 6 7 8 11 11 11 10 10 10 8 8 7 7 5 6 6 7 9 10 8 7 2 2 4 2 3 4 3 4 3 5 6 6 6 6 6 6 5 7 6 4 4 5 5 4
4 4 9 9 4 3 5 4 5 6 6 6 7 10 10 10 9 8 9 8 8 8 10 11 12 10 9 6 5 1 3 3 3 4 2 2 5 4 3 3 4 3 2 4 6 6 5 5 5 5 5 6 6 7
7 9 12 9 5 7 5 4 4 6 7 10 10 9 7 8 9 10 10 8 9 9 9 9 9 8 10 10 10 5 5 2 3 4 4 2 5 5 3 4 4 3 3 3 3 5 7 5 6 5 5 5 5 6
1 4 3 6 4 4 5 7 5 6 7 9 11 10 9 9 9 9 8 10 10 10 10 9 8 8 11 13 9 8 6 3 2 2 1 6 6 5 3 3 5 3 2 3 4 4 6 5 5 6 5 4 6 7
7 5 3 6 4 3 6 7 4 5 5 6 4 5 4 5 5 4 5 7 10 9 9 9 10 12 11 11 10 10 4 4 1 3 1 3 5 4 4 3 3 5 4 3 4 4 6 7 6 7 6 4 4 5
3 4 4 4 7 5 5 4 5 4 4 6 4 4 5 4 3 3 4 6 8 6 5 7 7 6 7 10 11 8 4 3 5 4 4 6 5 5 5 4 5 3 7 5 5 5 6 6 7 6 6 6 3 4
2 4 4 5 5 5 7 10 11 7 9 10 6 4 3 3 3 4 6 5 3 6 7 8 7 10 10 11 8 5 4 7 4 5 4 6 6 6 6 3 7 5 6 6 5 8 7 6 8 7 7 6 7 3
5 7 6 6 6 6 4 5 4 3 3 3 4 3 2 2 3 5 3 4 4 1 4 8 9 7 10 7 5 4 6 7 7 4 9 8 7 6 7 6 4 6 6 7 8 7 7 9 8 10 8 8 6 8
5 7 7 9 6 4 5 5 5 3 5 4 2 2 3 4 4 2 4 3 4 2 4 4 3 4 8 5 4 6 3 5 8 5 8 7 6 5 6 6 7 5 6 8 7 9 7 9 10 9 9 8 7 6
7 5 4 4 3 2 4 3 4 4 3 1 3 4 3 4 2 3 3 5 6 3 5 7 8 6 4 6 6 5 7 7 8 11 8 7 4 4 8 6 7 11 6 6 8 9 8 8 8 8 11 10 7 8
8 6 5 7 4 3 3 4 3 2 1 1 3 2 2 2 3 4 3 3 3 5 7 7 5 8 5 8 10 9 9 8 8 9 11 6 2 2 5 4 8 8 7 7 4 7 10 8 8 8 6 7 9 9
12 8 7 5 4 4 2 2 4 3 1 2 2 3 2 1 3 5 7 8 7 3 3 4 6 8 9 9 9 10 9 8 9 7 6 5 5 4 3 3 4 8 8 8 8 8 6 7 4 5 4 5 7 6
4 3 5 5 4 4 5 5 4 3 2 2 2 3 5 4 4 3 2 2 3 7 9 9 9 9 9 9 5 9 9 8 9 10 8 6 6 5 2 1 4 3 7 9 8 9 8 5 5 9 9 9 9 7
6 5 3 3 2 1 2 1 1 1 2 4 4 4 6 4 5 6 8 7 9 10 10 10 9 10 10 9 9 8 7 7 7 6 6 5 5 4 5 3 4 4 6 7 8 9 10 9 7 8 10 11 9 12
4 3 2 1 2 2 2 0 1 2 2 1 0 5 9 9 7 4 4 6 7 6 6 7 9 9 9 9 8 6 9 8 8 5 5 2 2 4 5 2 2 1 4 3 5 8 12 14 9 10 11 12 10 9
Wind_Direction
212 206 215 224 242 268 290 304 313 318 318 322 328 328 331 331 345 323 306 283 269 266 285 283 292 288 290 278 259 295 331 36 315 326 307 345 317 332 317 318 311 309 299 298 303 282 279 359 339 349 293 310 324 309
193 186 205 225 244 268 291 301 312 322 321 320 322 325 333 348 345 337 284 236 230 248 286 306 291 274 263 259 263 248 250 311 303 313 326 322 312 301 313 298 323 309 315 284 261 281 311 303 323 340 349 313 311 309
175 182 207 221 240 267 287 298 311 320 326 322 316 314 322 331 338 337 300 298 305 268 282 287 278 274 209 229 232 239 256 204 212 44 4 294 284 319 298 296 301 304 312 286 296 283 295 306 326 330 324 315 316 317
184 204 209 226 244 262 281 293 304 312 317 322 317 313 312 315 321 318 287 293 276 292 286 309 331 317 306 239 210 214 245 194 257 250 209 236 247 281 281 292 291 288 297 279 280 290 333 310 323 308 315 322 320 304
194 213 226 239 250 266 283 291 297 302 306 308 309 308 312 313 312 295 269 265 204 262 301 301 294 282 312 222 256 216 205 223 228 163 202 231 247 267 270 278 268 273 267 280 268 309 304 302 306 333 325 324 308 304
210 224 236 251 260 270 282 291 297 300 302 304 303 304 305 308 317 289 282 50 34 289 289 308 333 292 273 219 223 220 207 185 135 189 218 239 240 250 265 277 285 304 348 346 307 329 319 309 329 324 323 309 305 301
220 229 238 250 262 273 282 288 292 296 298 300 299 296 295 296 285 267 339 325 326 312 264 295 291 256 234 239 247 227 148 163 205 210 224 252 261 219 232 256 282 353 307 320 335 338 323 328 319 326 309 307 305 308
229 234 242 251 262 273 283 289 294 296 298 298 294 295 293 287 270 255 222 221 223 251 233 274 270 271 158 279 231 190 170 166 214 235 260 252 270 214 259 274 303 297 330 326 338 327 320 325 325 312 312 317 321 346
231 235 245 255 264 276 284 292 296 298 297 295 296 291 276 212 224 127 111 123 192 280 284 235 265 291 311 311 325 263 188 206 176 220 223 234 235 233 249 283 316 335 344 328 330 328 339 326 315 324 329 334 343 6
234 238 246 249 259 274 284 292 299 300 295 296 277 220 206 42 110 140 124 214 192 211 240 252 261 250 299 322 304 307 180 231 228 222 206 223 246 34 58 15 346 350 335 344 335 340 335 323 335 332 345 346 353 33
235 242 255 248 263 275 285 296 304 315 285 212 249 32 30 161 227 225 198 217 171 223 216 243 240 250 268 265 296 295 308 263 266 136 238 225 76 328 360 -0 357 340 351 340 345 342 322 334 337 340 353 -0 16 63
232 245 250 253 264 273 283 293 305 287 11 318 283 266 246 236 245 235 222 209 204 240 181 220 215 216 232 193 250 248 266 285 261 151 207 75 308 355 351 349 350 348 348 2 355 336 350 354 353 356 3 8 56 78
235 237 241 249 257 266 276 286 292 293 291 274 257 257 198 221 213 225 217 211 217 213 195 204 227 215 199 191 218 258 249 246 290 246 50 11 345 344 35 353 346 360 12 358 353 2 12 354 20 10 6 46 72 79
233 233 240 248 257 266 270 270 273 283 249 227 225 237 234 203 219 214 240 294 138 276 202 201 224 255 218 189 203 240 243 291 274 16 33 302 314 13 13 349 356 6 5 357 9 11 7 20 21 15 29 50 68 78
221 232 240 246 250 260 286 246 239 237 251 240 239 235 226 250 276 251 252 241 294 194 228 280 296 274 268 252 239 245 252 248 147 336 272 323 358 28 14 349 12 9 1 12 16 17 11 36 31 21 39 63 77 82
220 254 236 240 222 210 275 270 241 233 234 240 240 261 275 289 280 309 321 317 239 270 274 271 255 248 261 255 242 262 283 273 27 1 359 325 8 38 17 7 16 357 29 13 38 17 29 43 43 30 46 51 47 48
191 279 59 161 184 228 262 270 230 225 238 233 238 245 269 278 282 278 254 277 288 271 271 290 268 234 254 223 219 237 308 43 18 16 338 334 30 35 24 17 33 6 28 18 52 32 48 45 55 41 67 44 47 29
227 107 150 215 252 248 240 233 261 250 245 249 268 266 267 266 265 269 271 272 279 278 276 268 279 275 266 281 283 194 260 48 61 1 326 350 10 50 31 46 42 36 27 43 50 47 52 54 61 49 44 37 44 12
141 96 186 256 307 280 232 217 225 259 253 251 249 253 255 262 265 268 265 274 279 281 270 259 251 255 256 261 308 3 55 341 42 7 16 31 345 68 65 74 56 45 36 46 50 63 55 69 72 83 44 37 28 360
231 232 230 249 257 253 253 229 199 253 275 278 274 262 258 257 261 254 253 243 233 235 241 244 246 257 284 353 318 204 329 359 20 21 277 93 127 126 89 67 100 69 75 65 50 81 75 72 82 89 68 41 34 3
210 216 217 220 216 228 279 275 238 249 256 264 271 276 263 254 254 257 248 238 231 228 236 236 241 255 296 303 298 319 281 351 339 345 344 96 138 125 138 126 118 101 72 100 75 90 89 81 96 101 74 55 22 345
287 236 179 206 236 242 248 242 242 291 273 264 276 272 263 261 255 245 247 243 231 234 236 230 238 243 245 255 274 236 258 285 87 90 74 119 132 146 166 114 127 107 63 70 108 69 103 88 91 98 95 64 27 16
242 224 211 189 241 261 255 250 233 248 265 303 308 258 284 294 291 297 267 246 246 237 229 229 224 226 248 275 276 271 252 275 170 119 173 110 129 151 143 136 116 130 123 99 95 89 104 100 85 102 103 91 46 32
177 237 250 227 198 258 259 230 218 253 267 252 261 264 264 247 258 221 237 249 244 247 252 258 223 216 240 247 256 257 215 167 115 129 138 140 135 120 140 152 125 133 126 128 131 130 110 116 112 101 109 109 40 34
192 237 189 251 260 238 260 259 237 228 255 278 294 267 295 330 277 249 235 255 238 239 211 196 208 217 217 227 210 206 193 117 129 171 158 136 133 135 124 127 119 126 138 142 128 121 136 133 119 119 124 121 124 80
219 214 198 238 210 214 246 299 348 334 319 275 249 276 348 270 258 257 326 359 316 271 197 211 207 195 235 163 158 103 128 162 182 162 136 157 137 149 150 151 131 132 145 141 147 146 140 139 132 141 138 136 130 140
249 252 205 225 255 238 264 305 343 301 270 266 304 275 230 229 231 260 273 254 286 305 267 287 344 169 97 92 111 88 154 122 175 153 140 121 136 163 172 165 163 155 140 135 150 142 147 146 149 143 135 151 157 149
249 277 268 283 291 303 313 315 264 259 274 335 305 257 297 341 311 295 298 317 302 296 94 79 73 94 144 119 110 120 97 102 100 99 91 95 94 85 92 122 129 137 134 123 131 148 156 150 148 150 153 158 165 162
242 245 270 276 324 317 254 238 246 254 324 290 287 285 301 258 272 310 306 319 321 81 74 91 106 88 70 74 58 51 59 40 71 109 121 131 124 95 117 131 149 143 147 142 103 121 152 154 157 157 172 160 164 170
241 240 247 255 234 241 243 207 262 251 261 218 202 262 243 331 327 313 7 15 28 62 153 138 100 93 91 92 87 74 59 50 36 41 65 62 95 81 158 138 148 144 150 154 145 129 107 145 135 175 190 181 165 180
249 207 241 246 264 327 336 334 321 301 234 255 259 64 85 108 86 72 54 103 105 73 78 79 73 70 69 69 69 91 76 61 55 47 22 3 349 53 39 143 135 158 146 149 159 155 158 167 182 192 193 180 181 188
245 257 334 295 279 349 43 278 251 82 220 214 195 180 126 83 63 27 25 41 51 48 54 70 65 48 59 70 77 92 100 78 62 53 40 21 6 350 308 3 331 158 157 143 156 158 171 172 184 206 215 198 179 193
261 264 213 236 226 187 189 158 41 41 15 281 275 110 92 81 71 39 34 62 43 43 50 56 72 74 65 56 44 80 89 92 102 116 127 112 20 347 309 278 317 259 156 195 182 172 177 177 190 188 203 215 208 212